GW5949 Weather Reports


time (UTC)temp
F
wind
direction
speed
knots
gust
knots
rain 1hr
in
rain 24hr
in
rain mn
in
humidity
%
barometer
mb
20260506165441 0 334 0.0 0.0 0.00 0.00 0.00 1022.3
20260506164936 0 323 0.0 0.0 0.00 0.00 0.00 1022.1
20260506164433 0 320 0.0 0.0 0.00 0.00 0.00 1022.4
20260506163925 0 307 0.9 0.9 0.00 0.00 0.00 1022.4
20260506163420 0 353 0.9 0.9 0.00 0.00 0.00 1022.4
20260506162914 0 317 0.9 0.9 0.00 0.00 0.00 1022.2
20260506162413 0 207 2.6 2.6 0.00 0.00 0.00 1022.3
20260506161909 0 269 1.7 1.7 0.00 0.00 0.00 1022.3
20260506161408 0 227 1.7 1.7 0.00 0.00 0.00 1022.3
20260506160859 0 242 1.7 1.7 0.00 0.00 0.00 1022.5
20260506160355 0 247 1.7 1.7 0.00 0.00 0.00 1022.4
20260506155854 0 261 0.9 1.7 0.00 0.00 0.00 1022.5
20260506155350 0 316 0.0 0.9 0.00 0.00 0.00 1022.3
20260506153508 0 320 0.0 0.0 0.00 0.00 0.00 1022.1
20260506153005 0 313 0.0 0.9 0.00 0.00 0.00 1022.2
20260506152502 0 226 1.7 1.7 0.00 0.00 0.00 1022.3
20260506152001 0 275 0.9 0.9 0.00 0.00 0.00 1022.2
20260506151458 0 298 0.9 0.9 0.00 0.00 0.00 1022.0
20260506150955 0 221 1.7 1.7 0.00 0.00 0.00 1022.2
20260506150451 0 309 0.9 0.9 0.00 0.00 0.00 1022.0
20260506145948 0 301 0.9 0.9 0.00 0.00 0.00 1022.2
20260506145444 0 223 1.7 1.7 0.00 0.00 0.00 1022.1
20260506144942 0 300 0.9 0.9 0.00 0.00 0.00 1022.0
20260506144438 0 312 0.0 0.0 0.00 0.00 0.00 1022.2
20260506143937 0 311 0.9 0.9 0.00 0.00 0.00 1022.3
20260506143433 0 312 0.0 0.9 0.00 0.00 0.00 1022.1
20260506142932 0 325 0.0 0.0 0.00 0.00 0.00 1022.1
20260506142429 0 232 0.9 1.7 0.00 0.00 0.00 1022.0
20260506141927 0 293 1.7 1.7 0.00 0.00 0.00 1021.8
20260506141425 0 294 0.9 1.7 0.00 0.00 0.00 1021.8
20260506140923 0 310 0.0 0.9 0.00 0.00 0.00 1022.0
20260506140420 0 301 0.9 0.9 0.00 0.00 0.00 1021.9
20260506135917 0 314 0.0 0.0 0.00 0.00 0.00 1021.9
20260506135414 0 311 0.9 0.9 0.00 0.00 0.00 1021.9
20260506134910 0 317 0.0 0.9 0.00 0.00 0.00 1021.6
20260506134406 0 318 0.0 0.9 0.00 0.00 0.00 1021.7
20260506133903 0 315 0.0 0.0 0.00 0.00 0.00 1021.5
20260506133400 0 319 0.0 0.0 0.00 0.00 0.00 1021.6
20260506132857 0 319 0.0 0.0 0.00 0.00 0.00 1021.6
20260506132354 0 321 0.0 0.9 0.00 0.00 0.00 1021.4
20260506131852 0 315 0.9 0.9 0.00 0.00 0.00 1021.5
20260506131348 0 317 0.0 0.0 0.00 0.00 0.00 1021.3
20260506130845 0 317 0.9 0.9 0.00 0.00 0.00 1021.5
20260506130341 0 322 0.9 0.9 0.00 0.00 0.00 1021.4
20260506125839 0 333 0.0 0.0 0.00 0.00 0.00 1021.5
20260506125338 0 316 0.0 0.9 0.00 0.00 0.00 1021.4
20260506124835 0 307 0.0 0.0 0.00 0.00 0.00 1021.4
20260506124332 0 330 0.0 0.0 0.00 0.00 0.00 1021.5
20260506123830 0 323 0.0 0.0 0.00 0.00 0.00 1021.4
20260506123328 0 322 0.0 0.0 0.00 0.00 0.00 1021.1
20260506122825 0 322 0.0 0.0 0.00 0.00 0.00 1021.6
20260506122322 0 322 0.0 0.9 0.00 0.00 0.00 1021.1
20260506121820 0 321 0.0 0.0 0.00 0.00 0.00 1021.2
20260506121317 0 317 0.0 0.9 0.00 0.00 0.00 1020.9
20260506120814 0 316 0.0 0.0 0.00 0.00 0.00 1021.1
20260506120312 0 316 0.0 0.0 0.00 0.00 0.00 1021.2
20260506115809 0 315 0.0 0.0 0.00 0.00 0.00 1021.2
20260506115307 0 319 0.0 0.9 0.00 0.00 0.00 1021.2
20260506114805 0 318 0.9 0.9 0.00 0.00 0.00 1021.1
20260506114302 0 328 0.0 0.0 0.00 0.00 0.00 1021.1
20260506113801 0 328 0.0 0.0 0.00 0.00 0.00 1021.1
20260506113258 0 338 0.0 0.0 0.00 0.00 0.00 1020.9
20260506112754 0 338 0.0 0.0 0.00 0.00 0.00 1021.2
20260506112252 0 331 0.0 0.0 0.00 0.00 0.00 1021.1
20260506111749 0 321 0.9 0.9 0.00 0.00 0.00 1021.0
20260506111247 0 340 0.0 0.9 0.00 0.00 0.00 1020.9
20260506110743 0 340 0.0 0.0 0.00 0.00 0.00 1020.8
20260506110241 0 30 0.0 0.0 0.00 0.00 0.00 1020.7
20260506105737 0 49 0.0 0.0 0.00 0.00 0.00 1020.8
20260506105235 0 7 0.0 0.9 0.00 0.00 0.00 1020.6
20260506104732 0 57 0.0 0.0 0.00 0.00 0.00 1020.7
20260506104230 0 35 0.9 0.9 0.00 0.00 0.00 1020.4
20260506103727 0 339 0.0 0.0 0.00 0.00 0.00 1020.7
20260506103224 0 320 0.0 0.0 0.00 0.00 0.00 1020.5
20260506102722 0 319 0.0 0.9 0.00 0.00 0.00 1020.3
20260506102220 0 314 0.0 0.0 0.00 0.00 0.00 1020.4
20260506101716 0 313 0.0 0.9 0.00 0.00 0.00 1020.4
20260506101213 0 304 0.0 0.0 0.00 0.00 0.00 1020.5
20260506100711 0 322 0.9 0.9 0.00 0.00 0.00 1020.5
20260506100209 0 309 0.9 0.9 0.00 0.00 0.00 1020.2
20260506095707 0 294 0.9 0.9 0.00 0.00 0.00 1020.3
20260506095203 0 318 0.9 0.9 0.00 0.00 0.00 1020.4
20260506094701 0 336 0.0 0.0 0.00 0.00 0.00 1020.4
20260506094158 0 336 0.9 0.9 0.00 0.00 0.00 1020.2
20260506093657 0 304 0.9 0.9 0.00 0.00 0.00 1020.3
20260506093154 0 302 0.9 0.9 0.00 0.00 0.00 1020.4
20260506092651 0 325 0.0 0.0 0.00 0.00 0.00 1020.5
20260506092149 0 317 0.9 0.9 0.00 0.00 0.00 1020.3
20260506091647 0 314 0.9 0.9 0.00 0.00 0.00 1020.4
20260506091144 0 317 0.0 0.0 0.00 0.00 0.00 1020.2
20260506090641 0 305 0.9 0.9 0.00 0.00 0.00 1020.2
20260506090138 0 229 1.7 1.7 0.00 0.00 0.00 1020.6
20260506085635 0 230 0.9 0.9 0.00 0.00 0.00 1020.4
20260506085131 0 201 2.6 2.6 0.00 0.00 0.00 1020.4
20260506084627 0 285 0.9 0.9 0.00 0.00 0.00 1020.2
20260506084124 0 300 0.9 0.9 0.00 0.00 0.00 1020.3
20260506083621 0 245 1.7 1.7 0.00 0.00 0.00 1020.6
20260506083119 0 315 0.0 0.0 0.00 0.00 0.00 1020.5
20260506082615 0 251 0.9 0.9 0.00 0.00 0.00 1020.5
20260506082111 0 319 0.0 0.9 0.00 0.00 0.00 1020.4
20260506081609 0 319 0.0 0.0 0.00 0.00 0.00 1020.3
20260506081107 0 319 0.0 0.0 0.00 0.00 0.00 1020.4
20260506080604 0 319 0.0 0.0 0.00 0.00 0.00 1020.4
20260506073044 0 301 0.9 0.9 0.00 0.00 0.00 1020.2
20260506072541 0 312 0.0 0.0 0.00 0.00 0.00 1020.2
20260506072039 0 312 0.0 0.0 0.00 0.00 0.00 1020.1
20260506071537 0 312 0.0 0.9 0.00 0.00 0.00 1020.0
20260506071034 0 313 0.0 0.0 0.00 0.00 0.00 1020.0
20260506070531 0 312 0.0 0.9 0.00 0.00 0.00 1019.9
20260506062509 0 278 0.9 1.7 0.00 0.08 0.08 1019.5
20260506062005 0 257 2.6 4.3 0.00 0.08 0.08 1019.5
20260506061501 0 316 0.9 1.7 0.00 0.08 0.08 1019.7
20260506060959 0 301 0.9 0.9 0.00 0.08 0.08 1019.7
20260506060457 0 312 0.0 0.0 0.00 0.08 0.08 1019.4
20260506050926 0 324 0.9 0.9 0.00 0.08 0.08 1018.8
20260506050424 0 275 1.7 1.7 0.00 0.08 0.08 1018.8
20260506044914 0 351 0.0 0.0 0.00 0.08 0.08 1018.9
20260506044412 0 351 0.0 0.0 0.00 0.08 0.08 1018.6
20260506043909 0 328 0.0 0.0 0.00 0.08 0.08 1018.7
20260506043406 0 224 4.3 4.3 0.00 0.08 0.08 1018.7
20260506042904 0 320 0.9 0.9 0.00 0.08 0.08 1018.4
20260506042403 0 355 0.0 0.0 0.00 0.08 0.08 1018.4
20260506041901 0 323 0.0 0.9 0.00 0.08 0.08 1018.2
20260506041358 0 312 0.0 0.9 0.00 0.08 0.08 1018.2
20260506040855 0 306 0.9 1.7 0.00 0.08 0.08 1017.9
20260506040353 0 305 0.0 0.0 0.00 0.08 0.08 1018.0
20260506035848 0 306 0.9 0.9 0.00 0.08 0.08 1018.0
20260506035346 0 237 0.9 0.9 0.00 0.08 0.08 1018.2
20260506034843 0 314 0.0 0.9 0.00 0.08 0.08 1018.0
20260506034340 0 313 0.0 0.0 0.00 0.08 0.08 1018.2
20260506033837 0 313 0.0 0.0 0.00 0.08 0.08 1018.0
20260506033334 0 311 0.9 0.9 0.00 0.08 0.08 1018.1
20260506032831 0 316 0.0 0.9 0.00 0.08 0.08 1018.0
20260506032328 0 278 0.9 0.9 0.00 0.08 0.08 1017.8
20260506031825 0 326 0.0 0.0 0.00 0.08 0.08 1017.6
20260506031322 0 326 0.0 0.0 0.00 0.08 0.08 1017.7
20260506030820 0 45 0.9 0.9 0.00 0.08 0.08 1017.3
20260506030318 0 283 0.9 1.7 0.00 0.08 0.08 1017.6
20260506025814 0 208 0.9 0.9 0.00 0.08 0.08 1017.4
20260506025311 0 237 1.7 1.7 0.00 0.08 0.08 1017.4
20260506024808 0 294 0.9 1.7 0.00 0.08 0.08 1017.6
20260506024304 0 356 0.0 0.0 0.00 0.08 0.08 1017.4
20260506023800 0 353 0.9 0.9 0.00 0.08 0.08 1017.2
20260506023258 0 342 0.0 0.9 0.00 0.08 0.08 1017.2
20260506022754 0 323 0.9 0.9 0.00 0.08 0.08 1016.8
20260506022252 0 334 0.0 0.9 0.00 0.08 0.08 1017.1
20260506021750 0 26 0.0 0.0 0.00 0.08 0.08 1017.1
20260506021247 0 260 1.7 1.7 0.00 0.08 0.08 1016.9
20260506020743 0 239 0.9 0.9 0.00 0.08 0.08 1017.0
20260506020241 0 359 0.9 0.9 0.00 0.08 0.08 1017.0
20260506015738 0 244 2.6 4.3 0.00 0.08 0.08 1016.8
20260506015236 0 195 0.0 0.9 0.00 0.08 0.08 1017.0
20260506014733 0 289 0.9 0.9 0.00 0.08 0.08 1016.9
20260506014229 0 306 0.9 1.7 0.00 0.08 0.08 1017.1
20260506013726 0 319 1.7 1.7 0.00 0.08 0.08 1016.9
20260506013223 0 233 1.7 1.7 0.00 0.08 0.08 1016.5
20260506012719 0 225 0.0 0.9 0.00 0.08 0.08 1016.7
20260506012217 0 24 0.0 0.0 0.00 0.08 0.08 1016.9
20260506011714 0 272 1.7 1.7 0.00 0.08 0.08 1017.1
20260506011210 0 217 1.7 1.7 0.00 0.08 0.08 1016.9
20260506010709 0 37 0.9 1.7 0.00 0.08 0.08 1016.8
20260506010206 0 357 0.0 0.0 0.00 0.08 0.08 1016.5
20260506005703 0 192 0.9 0.9 0.00 0.08 0.08 1017.0
20260506005200 0 247 1.7 1.7 0.00 0.08 0.08 1016.5
20260506004655 0 190 1.7 2.6 0.00 0.08 0.08 1016.9
20260506004153 0 28 0.0 0.0 0.00 0.08 0.08 1016.7
20260506003649 0 38 0.9 1.7 0.00 0.08 0.08 1016.3
20260506003146 0 219 0.9 0.9 0.00 0.08 0.08 1016.5
20260506002641 0 13 0.0 0.0 0.00 0.08 0.08 1016.5
20260506002138 0 50 0.9 0.9 0.00 0.08 0.08 1016.2
20260506001633 0 31 0.0 0.0 0.00 0.08 0.08 1016.3
20260506001131 0 10 0.0 0.0 0.00 0.08 0.08 1016.4
20260506000628 0 315 0.9 0.9 0.00 0.08 0.08 1016.4
20260506000125 0 59 1.7 1.7 0.00 0.08 0.08 1016.4
20260505235623 0 62 0.0 0.0 0.00 0.08 0.08 1016.4
20260505235120 0 344 0.0 0.0 0.00 0.08 0.08 1016.3
20260505234617 0 231 1.7 1.7 0.00 0.08 0.08 1016.3
20260505234114 0 218 1.7 1.7 0.00 0.08 0.08 1016.4
20260505233611 0 240 1.7 1.7 0.00 0.08 0.08 1016.4
20260505233109 0 271 0.9 1.7 0.00 0.08 0.08 1016.3
20260505232606 0 307 0.0 0.9 0.00 0.08 0.08 1016.3
20260505232104 0 300 0.9 0.9 0.00 0.08 0.08 1016.4
20260505231600 0 255 1.7 1.7 0.00 0.08 0.08 1016.2
20260505231059 0 227 0.9 0.9 0.00 0.08 0.08 1016.4
20260505230556 0 235 0.0 0.0 0.00 0.08 0.08 1016.7
20260505230052 0 212 1.7 2.6 0.00 0.08 0.08 1016.7
20260505225549 0 227 1.7 1.7 0.00 0.08 0.08 1016.4
20260505225045 0 259 2.6 4.3 0.00 0.08 0.08 1016.4
20260505224543 0 302 0.0 0.9 0.00 0.08 0.08 1016.2
20260505224040 0 85 0.9 1.7 0.00 0.08 0.08 1016.5
20260505223537 0 79 1.7 2.6 0.00 0.08 0.08 1016.4
20260505223033 0 41 0.0 0.0 0.00 0.08 0.08 1016.7
20260505222529 0 41 0.0 0.0 0.00 0.08 0.08 1016.5
20260505222025 0 36 0.0 0.0 0.00 0.08 0.08 1016.8
20260505221523 0 317 0.0 0.9 0.00 0.08 0.08 1016.9
20260505221019 0 2 0.9 0.9 0.00 0.08 0.08 1016.7
20260505220517 0 5 0.9 1.7 0.00 0.08 0.08 1016.8
20260505220015 0 356 0.9 0.9 0.00 0.08 0.08 1016.7
20260505215512 0 336 0.0 0.0 0.00 0.08 0.08 1016.8
20260505215010 0 212 0.0 0.9 0.00 0.08 0.08 1017.0
20260505214508 0 211 1.7 1.7 0.00 0.08 0.08 1017.0
20260505214004 0 270 0.9 0.9 0.00 0.08 0.08 1017.2
20260505213502 0 195 3.5 4.3 0.00 0.08 0.08 1016.8
20260505212958 0 315 0.9 1.7 0.00 0.08 0.08 1017.1
20260505212455 0 81 2.6 2.6 0.00 0.08 0.08 1017.1
20260505211951 0 245 0.9 0.9 0.00 0.08 0.08 1017.0
20260505211449 0 278 0.0 0.9 0.00 0.08 0.08 1017.3
20260505210945 0 241 2.6 2.6 0.00 0.08 0.08 1017.1
20260505210442 0 231 2.6 4.3 0.00 0.08 0.08 1017.1
20260505205939 0 286 0.0 0.9 0.00 0.08 0.08 1017.3
20260505205438 0 203 2.6 4.3 0.00 0.08 0.08 1017.1
20260505204934 0 293 0.9 0.9 0.00 0.08 0.08 1017.1
20260505204432 0 241 1.7 1.7 0.00 0.08 0.08 1017.2
20260505203929 0 256 2.6 2.6 0.00 0.08 0.08 1017.2
20260505203425 0 199 1.7 1.7 0.00 0.08 0.08 1017.2
20260505202922 0 208 1.7 2.6 0.00 0.08 0.08 1017.3
20260505202418 0 274 0.9 1.7 0.00 0.08 0.08 1017.2
20260505201915 0 251 1.7 1.7 0.00 0.08 0.08 1017.2
20260505201412 0 253 1.7 1.7 0.00 0.08 0.08 1017.5
20260505200910 0 203 0.9 1.7 0.00 0.08 0.08 1017.5
20260505200407 0 218 3.5 4.3 0.00 0.08 0.08 1017.5
20260505195902 0 261 0.0 0.9 0.00 0.08 0.08 1017.3
20260505195400 0 282 0.9 0.9 0.00 0.08 0.08 1017.2
20260505194857 0 272 1.7 1.7 0.00 0.08 0.08 1017.5
20260505194354 0 201 2.6 2.6 0.00 0.08 0.08 1017.5
20260505193849 0 244 0.0 0.0 0.00 0.08 0.08 1017.4
20260505193347 0 213 1.7 1.7 0.00 0.08 0.08 1017.5
20260505192844 0 302 0.9 0.9 0.00 0.08 0.08 1017.3
20260505192343 0 309 0.0 0.9 0.00 0.08 0.08 1017.6
20260505191840 0 315 0.0 0.9 0.00 0.08 0.08 1017.5
20260505191338 0 279 0.0 0.0 0.00 0.08 0.08 1017.6
20260505190835 0 324 0.9 0.9 0.00 0.08 0.08 1017.7
20260505190330 0 220 0.9 0.9 0.00 0.08 0.08 1017.6
20260505185826 0 227 1.7 1.7 0.00 0.08 0.08 1017.5
20260505185322 0 337 0.9 0.9 0.00 0.08 0.08 1017.4
20260505184818 0 3 0.0 0.0 0.00 0.08 0.08 1017.5
20260505184316 0 4 0.0 0.0 0.00 0.08 0.08 1017.3
20260505183813 0 232 1.7 1.7 0.00 0.08 0.08 1017.3
20260505183310 0 259 2.6 2.6 0.00 0.08 0.08 1017.3
20260505182807 0 325 0.0 0.0 0.00 0.08 0.08 1017.3
20260505182305 0 330 0.9 0.9 0.00 0.08 0.08 1017.4
20260505181800 0 337 0.0 0.0 0.00 0.08 0.08 1017.3
20260505181257 0 322 0.9 0.9 0.00 0.08 0.08 1017.3
20260505180754 0 340 0.0 0.9 0.00 0.08 0.08 1017.3
20260505180250 0 34 0.9 0.9 0.00 0.08 0.08 1017.4
20260505175747 0 249 1.7 1.7 0.00 0.08 0.08 1017.5
20260505175243 0 267 0.9 0.9 0.00 0.08 0.08 1017.2
20260505174739 0 212 3.5 4.3 0.00 0.08 0.08 1017.3
20260505174236 0 347 0.9 0.9 0.00 0.08 0.08 1017.0